Weather History for Aurora, OR

Change the Weather History Date:

Thursday, November 21, 2013

  Actual Average Record
Temperature  
Mean Temperature 38 °F -  
Max Temperature 48 °F - 55 °F (1998)
Min Temperature 31 °F - 28 °F (2000)
Degree Days  
Heating Degree Days 25    
Month to date heating degree days 369  
Since 1 July heating degree days 886  
Cooling Degree Days 0    
Month to date cooling degree days 0  
Year to date cooling degree days 426  
Moisture  
Dew Point 16 °F    
Average Humidity 47    
Maximum Humidity 69    
Minimum Humidity 25    
Precipitation  
Precipitation 0.00 in - 1.22 in (1960)
Month to date precipitation 3.26  
Year to date precipitation 25.22  
Sea Level Pressure  
Sea Level Pressure 30.52 in    
Wind  
Wind Speed 14 mph (North)    
Max Wind Speed 20 mph    
Max Gust Speed 24 mph    
Visibility 10 miles    
Events      
T = Trace of Precipitation, MM = Missing Value Source: NWS Daily Summary

Daily Weather History Graph

Daily Weather History Graph

Search for Another Location

Airport:

Trip Planner

Search our weather history database for the weather conditions in past years. The results will help you decide how hot, cold, wet, or windy it might be!

Date:

Astronomy

Nov. 21, 2013 Rise Set
Actual Time 7:17 AM PST 4:35 PM PST
Civil Twilight 6:45 AM PST 5:08 PM PST
Nautical Twilight 6:09 AM PST 5:44 PM PST
Astronomical Twilight 5:34 AM PST 6:19 PM PST
Moon 8:19 PM PST (11/21) 10:26 AM PST (11/21)
Length of Visible Light 10h 22m
Length of Day
9h 17m
Waning Gibbous, 84% of the Moon is Illuminated
Nov 21
Waning Gibbous
Nov 25
Last Quarter
Dec 2
New
Dec 9
First Quarter
Dec 17
Full

Hourly Weather History & Observations

Time (PST) Temp. Windchill Dew Point Humidity Pressure Visibility Wind Dir Wind Speed Gust Speed Precip Events Conditions
12:53 AM 33.1 °F 24.4 °F 21.0 °F 61% 30.42 in 10.0 mi North 11.5 mph - N/A   Clear
1:53 AM 33.1 °F 23.0 °F 21.0 °F 61% 30.45 in 10.0 mi North 15.0 mph - N/A   Clear
2:53 AM 32.0 °F 22.1 °F 21.0 °F 64% 30.47 in 10.0 mi North 13.8 mph - N/A   Clear
3:53 AM 32.0 °F 21.6 °F 21.0 °F 64% 30.48 in 10.0 mi NNE 15.0 mph - N/A   Clear
4:53 AM 30.9 °F 20.7 °F 21.0 °F 67% 30.48 in 10.0 mi North 13.8 mph - N/A   Clear
5:53 AM 30.9 °F 21.2 °F 19.9 °F 64% 30.49 in 10.0 mi North 12.7 mph - N/A   Clear
6:53 AM 30.9 °F 19.8 °F 19.0 °F 61% 30.52 in 10.0 mi NNE 16.1 mph - N/A   Clear
7:53 AM 32.0 °F 22.1 °F 19.0 °F 59% 30.53 in 10.0 mi North 13.8 mph - N/A   Clear
8:53 AM 35.1 °F 25.2 °F 19.0 °F 52% 30.54 in 10.0 mi North 16.1 mph - N/A   Clear
9:53 AM 37.9 °F 29.2 °F 18.0 °F 45% 30.56 in 10.0 mi North 15.0 mph - N/A   Clear
10:53 AM 41.0 °F 33.9 °F 18.0 °F 40% 30.57 in 10.0 mi North 12.7 mph - N/A   Clear
11:53 AM 44.1 °F 37.4 °F 18.0 °F 35% 30.54 in 10.0 mi North 13.8 mph - N/A   Clear
12:53 PM 46.0 °F 39.9 °F 18.0 °F 33% 30.53 in 10.0 mi North 13.8 mph - N/A   Clear
1:53 PM 46.9 °F - 12.0 °F 24% 30.53 in 10.0 mi NNE 18.4 mph - N/A   Clear
2:53 PM 46.9 °F - 12.0 °F 24% 30.53 in 10.0 mi NNE 13.8 mph - N/A   Clear
3:53 PM 44.1 °F 37.1 °F 12.0 °F 27% 30.54 in 10.0 mi North 15.0 mph - N/A   Clear
4:53 PM 41.0 °F 33.9 °F 10.9 °F 29% 30.53 in 10.0 mi NNE 12.7 mph - N/A   Clear
5:53 PM 39.0 °F 31.8 °F 12.0 °F 33% 30.54 in 10.0 mi North 11.5 mph - N/A   Clear
6:53 PM 37.9 °F 29.2 °F 12.9 °F 36% 30.55 in 10.0 mi North 15.0 mph - N/A   Clear
7:53 PM 37.0 °F 27.4 °F 12.0 °F 36% 30.56 in 10.0 mi North 17.3 mph - N/A   Clear
8:53 PM 35.1 °F 27.4 °F 14.0 °F 42% 30.54 in 10.0 mi North 10.4 mph - N/A   Clear
9:53 PM 35.1 °F 28.6 °F 14.0 °F 42% 30.56 in 10.0 mi North 8.1 mph - N/A   Clear
10:53 PM 35.1 °F 27.4 °F 14.0 °F 42% 30.57 in 10.0 mi North 10.4 mph - N/A   Clear
11:53 PM 32.0 °F 24.8 °F 15.1 °F 50% 30.57 in 10.0 mi North 8.1 mph - N/A   Clear